Terug naar catalogus

STARLINK-35961

ActiefCommunicatieVLEO
NORAD 66530·PAYLOAD·🇺🇸 United States

Gelanceerd Nov 19, 2025 vanaf Cape Canaveral Space Force Station

Loading…

Volgende Passages (komende 24 uur)

TLE

VersSource: CelesTrak SupGP

Epoch: Sep 14, 2026, 23:06 UTC

1 66530C 25265Q   26257.96298611  .00026409  00000+0  95651-3 0  2570
2 66530  43.0007 289.1670 0001402 270.1566 270.1780 15.27566610    18

Volg STARLINK-35961 in realtime met AllMySat

Download on the App Store